Temperature
20 21 21 21 21 20 20 19 19 19 19 19 19 19 19 19 19 19 19 19 19 19 19 19 19 19 19 19 19 19 19 19 19 19 19 19 19 19 19 19 19 19 19
20 21 21 21 20 20 20 19 19 19 19 19 19 19 19 19 19 19 19 19 19 19 19 19 19 19 19 19 19 19 19 19 19 19 19 19 19 19 19 19 19 19 19
20 21 20 20 20 20 19 19 19 19 19 19 19 19 19 19 19 19 19 19 19 19 19 18 18 18 18 19 19 18 19 19 19 18 18 18 18 19 19 19 19 19 19
20 20 20 20 20 19 19 19 19 19 19 19 19 19 19 19 19 18 18 19 19 19 19 18 18 18 18 18 18 18 18 18 18 18 18 18 18 19 19 19 19 19 19
20 19 20 20 20 19 19 19 19 19 19 19 19 19 19 19 18 18 18 18 19 19 18 18 18 18 18 18 18 18 18 18 18 18 18 18 18 19 19 19 19 19 19
20 19 20 20 20 19 19 19 19 18 18 18 19 19 19 18 18 18 18 18 19 19 19 18 18 18 18 18 19 19 18 18 18 18 18 18 18 18 19 19 19 19 19
20 19 20 19 19 19 19 19 18 18 18 18 19 19 18 18 18 18 18 18 18 19 19 18 18 18 18 18 18 18 18 18 17 18 18 18 18 18 18 18 18 19 19
20 19 20 20 20 19 19 19 18 18 18 19 19 18 18 18 18 18 18 18 18 18 18 18 18 19 19 19 19 18 18 18 17 18 18 18 18 18 18 18 18 18 18
20 19 19 20 20 19 19 19 18 18 19 19 18 18 18 18 18 18 18 18 18 18 18 18 18 19 19 19 18 18 18 18 17 17 17 18 18 18 18 18 18 18 18
20 20 19 19 19 19 19 19 19 19 18 18 18 18 18 18 18 18 18 18 18 18 18 18 18 18 18 18 18 18 18 17 17 17 17 18 18 18 18 18 18 18 18
21 20 20 19 19 19 19 19 19 18 18 18 18 18 18 18 18 17 18 18 18 18 18 18 18 18 18 18 18 17 17 17 17 17 17 17 18 18 18 18 18 18 18
22 21 20 20 19 19 18 19 19 18 19 18 18 18 18 17 17 17 18 18 18 18 18 18 18 18 18 18 18 17 17 17 17 17 17 17 17 18 18 18 18 18 18
22 22 21 20 20 19 19 19 18 18 18 18 18 18 17 17 17 17 18 18 17 17 17 18 18 18 18 18 18 18 17 17 17 17 17 17 17 17 17 17 18 18 18
23 22 21 21 20 19 19 19 18 18 18 18 18 18 18 17 17 17 17 17 17 17 17 18 18 18 19 19 18 17 17 17 17 17 17 17 17 17 17 17 17 17 17
23 23 22 21 21 20 19 19 19 19 19 18 18 18 18 18 18 17 17 17 17 17 17 18 18 18 18 18 18 17 17 17 17 17 17 17 17 17 17 17 17 17 17
24 23 22 22 21 21 20 19 19 19 19 18 18 18 18 18 18 18 18 17 17 17 18 18 18 18 18 18 17 17 17 16 16 16 16 16 16 17 17 17 17 17 17
24 23 23 22 21 21 20 20 19 19 19 19 18 18 18 18 18 18 18 18 18 18 18 18 18 18 18 17 17 17 17 17 16 16 16 16 16 16 17 17 17 17 17
25 24 23 22 22 21 21 20 20 19 19 18 18 18 18 18 18 18 18 18 18 18 18 18 18 18 17 17 17 17 17 17 17 17 16 16 16 16 16 16 16 17 17
25 24 23 22 22 21 21 20 20 20 19 19 18 18 18 18 18 18 18 18 18 18 18 18 17 17 17 17 17 17 17 16 17 17 16 16 16 16 17 17 17 17 17
25 24 24 22 22 21 21 20 20 20 19 18 18 18 18 18 18 18 18 18 18 18 18 17 17 17 17 17 17 16 16 16 17 17 16 16 16 16 17 17 17 17 17
25 24 23 22 21 20 20 20 19 19 19 18 18 18 18 18 18 18 18 18 18 18 17 17 17 17 17 17 17 16 16 16 16 16 16 16 16 16 16 16 17 17 17
24 23 23 22 21 20 19 19 19 19 18 18 18 18 18 18 18 18 18 17 17 17 17 17 17 17 17 16 16 16 16 16 16 16 16 16 16 16 16 16 16 16 16
23 22 22 21 21 20 19 18 18 18 18 18 18 18 18 17 17 17 17 17 17 17 17 17 16 17 17 16 16 16 16 16 16 16 16 16 16 16 16 16 16 15 16
22 21 21 21 20 20 19 18 17 17 17 18 18 18 18 17 17 17 17 17 17 17 17 16 16 16 16 16 16 16 17 17 16 16 16 16 16 16 16 16 16 15 16
22 21 21 21 20 19 18 18 17 17 17 17 17 17 17 17 17 17 17 17 17 17 16 16 16 16 16 16 16 16 17 17 17 17 16 16 16 16 16 16 16 15 15
21 21 21 21 20 19 18 18 17 17 17 17 17 17 17 17 16 16 16 16 16 16 16 16 15 15 15 16 16 16 16 17 17 17 17 17 16 16 16 15 15 15 15
Wind_Speed
13 14 16 14 12 10 9 8 8 8 9 9 10 10 9 10 11 12 12 11 11 11 11 10 9 9 9 9 9 9 9 9 9 8 8 8 8 7 6 6 6 9 9
16 16 16 13 11 10 9 8 8 8 9 10 11 10 11 12 13 12 11 10 11 11 11 10 10 9 9 9 9 9 8 8 6 5 4 6 6 7 7 9 11 9 9
17 16 15 13 11 10 9 9 8 8 9 10 11 11 12 13 12 10 10 9 10 11 11 10 11 11 11 11 11 10 8 6 4 3 2 2 6 6 7 8 9 10 9
17 15 14 13 11 10 9 9 9 9 9 9 10 10 11 11 10 10 10 10 10 10 11 11 13 13 13 13 12 10 7 5 4 4 3 5 6 7 8 7 7 8 8
15 14 16 14 11 10 9 9 9 9 9 9 10 10 10 11 10 10 10 9 9 10 11 12 13 13 13 13 12 10 7 7 7 7 10 10 8 8 8 7 6 7 6
14 15 16 14 11 10 10 9 9 9 9 10 10 10 10 11 11 10 9 9 9 9 10 10 11 12 12 12 11 9 8 9 7 10 12 11 8 7 7 6 6 6 6
14 14 15 13 12 11 10 10 9 9 10 11 10 10 10 11 11 10 9 8 8 8 8 8 10 11 11 11 10 9 9 12 2 12 12 11 9 8 7 6 6 6 6
14 13 15 13 11 11 11 11 10 11 12 11 11 11 11 11 11 11 9 8 8 8 8 9 10 10 10 10 9 7 9 11 5 11 13 11 10 10 8 7 7 6 6
14 13 13 13 12 11 11 12 12 12 13 12 12 12 13 12 11 10 9 8 8 8 9 9 9 10 9 8 5 4 6 10 10 6 12 10 10 10 9 8 8 7 6
13 13 13 13 14 13 12 13 13 13 13 13 13 13 13 12 12 11 10 9 9 9 9 8 7 7 6 5 2 1 5 8 4 14 12 9 9 9 9 8 7 7 7
13 12 12 12 12 14 15 14 13 13 13 13 12 13 14 12 12 10 11 10 9 9 9 8 7 7 6 5 5 4 5 5 10 13 10 8 7 8 7 7 7 6 6
13 13 11 12 11 10 12 13 12 12 12 12 12 13 13 12 12 13 13 10 10 10 9 9 8 8 9 8 8 6 3 6 11 12 9 7 6 7 7 7 6 6 6
11 13 12 12 12 11 9 9 7 8 10 11 14 15 13 10 13 13 9 9 9 10 9 9 9 10 10 6 6 6 7 12 12 11 9 8 7 8 8 8 7 6 6
11 10 14 13 12 12 10 7 6 4 5 5 11 14 9 5 6 8 7 9 9 9 7 7 5 3 3 3 6 8 10 11 12 11 10 9 9 9 10 10 10 9 9
13 11 11 12 13 11 10 8 9 7 5 6 7 9 9 4 6 6 5 6 7 7 4 2 1 3 5 7 8 7 8 11 13 11 11 13 13 12 11 12 11 11 12
13 13 11 12 12 11 10 9 8 8 6 6 5 7 10 6 4 6 6 4 3 6 6 2 4 3 5 4 6 5 5 9 13 13 12 15 17 16 14 14 14 13 13
13 12 11 10 12 11 11 10 8 6 7 4 5 8 10 9 6 5 5 5 3 6 6 3 4 4 5 4 5 5 4 4 9 12 12 12 14 17 18 17 17 16 16
14 13 12 11 11 10 9 8 7 7 7 5 6 7 8 10 9 5 5 6 5 6 3 5 4 3 4 3 3 3 3 2 5 9 11 11 11 13 15 17 18 17 17
13 14 15 11 9 9 8 6 6 7 7 5 7 5 6 9 10 6 5 5 6 3 4 6 4 3 4 4 4 2 3 2 2 4 7 9 10 13 12 14 16 16 16
9 11 11 10 8 7 6 4 3 3 4 4 4 4 5 5 7 6 5 5 5 5 4 4 5 4 4 4 3 3 2 1 4 5 5 6 8 11 12 13 13 14 15
6 6 9 10 7 5 4 3 2 2 3 4 3 3 4 4 5 4 6 6 5 5 5 5 5 5 3 3 3 2 1 0 5 1 2 4 4 7 8 10 12 13 12
7 7 9 9 7 6 4 3 2 2 2 4 4 3 5 6 6 4 8 5 4 5 7 5 5 4 2 2 4 3 1 1 1 3 2 2 5 3 5 9 9 11 13
8 7 8 9 8 6 4 2 1 2 2 4 5 5 5 6 6 4 6 6 5 4 5 6 6 6 4 2 2 4 4 4 2 2 5 3 4 2 0 3 8 11 15
9 8 10 9 8 7 6 4 5 5 5 6 6 6 7 6 6 5 4 6 6 5 5 6 6 5 6 4 4 4 5 5 4 3 2 3 6 4 3 2 4 8 15
11 8 9 9 8 8 8 7 5 5 4 4 4 7 7 7 7 6 6 7 7 6 6 6 5 7 6 6 5 5 5 3 4 4 4 4 3 4 4 4 3 5 11
10 9 9 8 7 7 6 6 6 6 5 4 3 4 4 4 5 7 7 7 7 6 7 7 7 8 8 9 8 8 6 3 3 3 4 6 5 5 5 4 4 5 8
Wind_Direction
128 130 141 142 142 139 131 123 116 111 113 115 115 116 118 111 104 98 90 85 79 72 68 66 68 70 73 79 78 76 75 74 72 77 92 99 93 81 69 48 33 80 75
128 131 141 143 145 145 141 134 127 120 118 119 120 120 120 115 110 102 94 88 81 75 71 69 70 72 74 79 79 77 77 77 70 67 96 115 104 87 73 66 64 73 73
125 133 141 143 145 148 149 146 139 131 124 121 119 120 121 121 117 108 100 93 86 81 76 72 73 72 74 75 75 74 73 70 57 17 332 163 125 96 82 75 71 75 74
131 140 142 144 147 150 154 155 149 141 133 122 118 118 122 126 122 112 102 95 88 83 80 81 76 72 73 72 71 68 63 49 17 346 359 79 111 106 96 86 78 78 80
132 135 134 146 151 155 158 161 158 151 144 134 127 123 122 124 124 116 107 98 92 87 84 86 80 75 74 72 67 59 44 21 357 37 59 74 87 112 113 110 98 91 91
125 126 137 148 154 160 162 164 163 158 151 143 137 133 129 127 125 121 115 104 97 94 88 86 86 83 79 73 63 46 22 2 352 75 66 72 80 107 118 122 115 106 102
128 129 139 148 154 160 164 166 164 159 153 147 143 138 134 131 128 127 121 109 103 100 92 87 93 91 82 72 58 33 4 343 23 100 83 73 76 93 108 118 123 115 114
130 133 137 149 153 159 162 163 159 155 152 148 144 140 137 134 134 132 124 114 109 102 92 90 93 89 78 68 56 25 350 336 20 104 97 81 80 86 93 100 109 112 119
135 137 144 152 156 157 158 157 154 153 152 147 141 139 138 137 138 134 126 122 117 107 97 93 92 87 82 75 63 13 328 326 324 96 98 81 78 82 86 87 92 101 110
143 148 154 157 155 157 154 153 151 151 151 146 141 141 140 141 142 140 133 132 131 120 112 109 111 112 112 113 123 248 294 302 353 83 86 87 84 83 84 85 85 88 96
152 153 155 156 158 155 151 149 148 150 150 147 145 149 150 158 156 156 132 140 137 132 135 150 163 159 155 166 183 206 264 258 96 86 75 85 91 90 89 88 89 91 96
158 160 156 152 155 149 144 148 155 157 156 168 161 168 184 177 154 130 134 140 142 148 164 190 200 195 192 197 198 206 251 70 88 91 72 76 96 102 102 99 95 97 101
160 160 159 154 152 140 135 153 157 159 172 189 167 183 202 154 125 127 145 151 160 172 194 201 224 223 202 190 170 141 79 70 69 76 71 75 88 99 99 97 94 92 99
156 154 156 157 152 151 151 152 154 165 183 197 180 190 179 156 150 155 163 175 178 198 205 206 221 223 150 133 110 107 90 88 81 77 73 82 87 95 97 93 87 84 84
151 158 155 155 156 160 152 157 170 169 179 197 186 187 164 160 160 158 170 174 192 169 197 247 110 50 49 41 63 86 102 108 102 92 79 82 85 86 92 94 91 87 84
157 162 157 159 158 161 156 171 170 166 175 180 176 195 173 168 161 161 167 170 175 154 187 189 102 94 72 54 52 47 81 118 124 119 100 83 82 83 86 89 88 84 82
158 160 156 168 164 168 166 178 168 162 169 166 177 204 185 176 172 163 166 167 176 181 185 153 116 100 106 111 85 64 37 55 121 125 124 110 89 81 84 85 84 81 78
162 159 160 181 172 166 164 177 168 172 169 165 171 208 200 184 185 167 161 169 191 190 153 120 123 118 125 127 117 116 107 356 97 127 129 128 121 100 88 87 83 80 77
157 157 167 174 164 163 165 174 172 171 165 165 167 191 208 198 194 167 166 176 189 163 143 147 149 142 129 100 82 52 91 77 53 107 117 118 124 126 117 100 92 84 78
149 159 158 151 152 149 147 165 142 139 154 151 147 171 204 218 206 167 153 188 185 157 149 152 141 129 124 136 155 101 60 115 75 51 82 114 119 125 141 132 112 95 83
138 141 136 138 137 119 120 144 153 166 138 131 143 175 204 247 235 171 163 192 193 161 159 161 134 131 126 157 117 109 262 301 104 132 113 103 107 135 142 138 141 126 100
122 117 118 119 124 125 130 146 155 166 176 171 175 194 205 232 245 210 178 174 175 158 166 176 134 136 164 183 140 141 220 356 327 155 85 143 156 162 153 143 136 136 125
117 119 113 118 122 130 138 141 164 159 213 191 191 206 211 217 239 233 201 174 174 163 170 175 151 152 172 229 180 156 174 199 208 176 198 202 129 127 84 123 142 125 116
126 122 123 131 146 157 165 186 197 187 202 208 198 200 208 210 222 228 221 198 183 172 172 184 176 165 165 202 248 218 197 169 168 175 212 198 167 182 149 76 73 106 116
131 129 133 144 155 162 178 185 204 215 215 231 211 187 198 201 206 206 214 207 197 183 185 187 195 183 182 187 224 254 247 217 204 147 182 195 174 179 168 169 142 111 120
135 142 142 150 150 156 175 188 201 217 218 227 220 187 183 185 203 209 210 209 204 198 199 201 210 203 197 194 209 237 231 204 232 191 170 179 179 194 171 155 152 135 130
Height
1496 1496 1498 1500 1502 1504 1505 1507 1509 1510 1511 1512 1513 1514 1515 1516 1517 1518 1520 1521 1522 1522 1523 1524 1524 1525 1525 1526 1527 1527 1528 1529 1531 1532 1532 1533 1534 1535 1535 1535 1535 1535 1536
1495 1497 1499 1501 1503 1505 1506 1508 1510 1511 1512 1513 1514 1516 1517 1518 1519 1520 1521 1522 1523 1523 1524 1525 1525 1526 1526 1527 1527 1528 1529 1531 1532 1533 1533 1534 1536 1536 1536 1536 1536 1536 1536
1495 1497 1500 1502 1504 1505 1507 1509 1510 1512 1513 1515 1516 1517 1518 1519 1520 1521 1522 1523 1524 1524 1525 1526 1527 1527 1527 1527 1528 1529 1530 1532 1533 1534 1535 1536 1536 1537 1537 1537 1537 1537 1537
1497 1498 1500 1503 1504 1506 1508 1509 1511 1513 1514 1516 1517 1518 1519 1520 1521 1522 1523 1524 1525 1525 1526 1526 1527 1528 1528 1528 1529 1530 1531 1533 1534 1535 1536 1536 1536 1537 1537 1537 1537 1538 1538
1499 1499 1501 1503 1505 1507 1509 1510 1512 1513 1515 1517 1518 1519 1520 1521 1522 1523 1524 1525 1525 1526 1526 1527 1528 1528 1529 1529 1530 1531 1532 1534 1535 1536 1536 1537 1537 1537 1538 1538 1538 1539 1539
1500 1500 1502 1504 1506 1507 1509 1511 1513 1514 1516 1517 1519 1520 1521 1522 1523 1524 1525 1526 1526 1527 1527 1528 1528 1529 1530 1530 1531 1533 1534 1535 1536 1537 1537 1537 1537 1538 1538 1539 1539 1540 1540
1500 1502 1502 1504 1506 1508 1510 1512 1513 1515 1517 1518 1519 1521 1522 1523 1523 1524 1526 1526 1527 1527 1528 1529 1529 1530 1530 1531 1532 1534 1536 1537 1538 1538 1538 1538 1538 1538 1538 1539 1540 1540 1541
1501 1503 1503 1505 1506 1508 1510 1512 1514 1516 1517 1519 1520 1521 1522 1523 1524 1525 1526 1527 1527 1528 1529 1530 1530 1531 1531 1532 1533 1535 1536 1538 1539 1539 1539 1539 1539 1538 1539 1539 1540 1541 1541
1502 1504 1504 1505 1507 1508 1510 1512 1514 1516 1518 1519 1520 1522 1523 1524 1525 1526 1527 1527 1528 1529 1530 1531 1531 1532 1533 1533 1534 1536 1537 1539 1540 1541 1539 1540 1540 1539 1539 1540 1541 1541 1541
1503 1504 1505 1506 1507 1509 1510 1512 1514 1516 1518 1520 1521 1522 1524 1525 1526 1527 1527 1528 1529 1530 1531 1532 1533 1534 1534 1535 1535 1536 1538 1540 1541 1540 1540 1540 1540 1540 1540 1540 1541 1541 1542
1503 1505 1506 1507 1509 1510 1511 1513 1515 1517 1519 1520 1522 1523 1525 1526 1527 1527 1528 1529 1530 1531 1532 1533 1534 1535 1536 1536 1537 1538 1539 1540 1541 1540 1540 1540 1540 1540 1540 1540 1541 1542 1542
1503 1505 1507 1508 1510 1512 1512 1513 1515 1517 1519 1521 1523 1524 1525 1527 1528 1529 1529 1530 1531 1532 1534 1535 1536 1536 1537 1537 1538 1539 1540 1541 1540 1540 1540 1540 1540 1540 1540 1540 1541 1542 1542
1503 1504 1506 1508 1510 1512 1513 1514 1515 1517 1519 1521 1523 1525 1526 1528 1529 1530 1530 1531 1532 1534 1535 1537 1537 1537 1538 1539 1540 1540 1541 1541 1541 1540 1540 1540 1540 1540 1540 1540 1541 1542 1542
1502 1505 1506 1508 1510 1511 1513 1514 1515 1517 1519 1521 1523 1525 1527 1528 1529 1530 1531 1532 1533 1535 1537 1538 1539 1540 1541 1541 1541 1541 1541 1541 1541 1540 1540 1540 1540 1540 1540 1540 1541 1542 1542
1500 1503 1506 1508 1509 1511 1512 1514 1515 1517 1518 1521 1524 1526 1527 1528 1530 1530 1532 1533 1534 1536 1538 1539 1541 1542 1541 1541 1542 1542 1541 1541 1541 1540 1540 1540 1540 1540 1540 1541 1541 1542 1543
1498 1501 1504 1506 1508 1510 1511 1513 1515 1516 1518 1520 1522 1525 1526 1528 1530 1530 1533 1533 1535 1536 1538 1540 1541 1542 1542 1543 1543 1543 1543 1543 1542 1542 1541 1541 1541 1541 1541 1542 1542 1542 1543
1495 1499 1502 1504 1506 1508 1510 1512 1514 1515 1516 1518 1520 1523 1525 1527 1529 1530 1532 1533 1535 1536 1538 1540 1541 1543 1543 1544 1544 1544 1544 1545 1544 1544 1543 1543 1543 1543 1543 1543 1543 1543 1544
1492 1496 1499 1502 1505 1507 1509 1510 1512 1513 1515 1516 1518 1521 1524 1525 1527 1529 1531 1532 1534 1535 1537 1538 1540 1542 1544 1545 1545 1545 1545 1546 1546 1546 1545 1545 1545 1545 1545 1544 1545 1545 1545
1490 1493 1496 1499 1502 1505 1507 1509 1511 1512 1513 1514 1516 1518 1521 1524 1525 1527 1529 1531 1533 1534 1536 1537 1539 1541 1543 1545 1546 1546 1546 1546 1547 1548 1547 1546 1546 1546 1546 1546 1546 1546 1546
1488 1491 1494 1496 1499 1503 1505 1507 1509 1510 1511 1512 1513 1515 1518 1521 1523 1525 1527 1530 1532 1533 1534 1536 1538 1540 1541 1544 1546 1547 1547 1547 1547 1548 1548 1548 1548 1547 1547 1547 1547 1547 1547
1486 1489 1491 1493 1496 1499 1501 1503 1506 1507 1509 1510 1511 1514 1515 1518 1520 1522 1524 1527 1530 1531 1532 1534 1536 1538 1540 1542 1545 1546 1547 1548 1547 1549 1549 1549 1549 1548 1548 1548 1547 1547 1547
1483 1487 1489 1491 1493 1495 1498 1500 1502 1505 1507 1508 1510 1511 1513 1515 1517 1519 1521 1523 1526 1528 1529 1531 1533 1535 1538 1540 1543 1545 1547 1548 1547 1549 1549 1549 1549 1549 1549 1549 1549 1548 1548
1481 1485 1487 1488 1490 1493 1494 1497 1499 1501 1503 1506 1507 1508 1510 1511 1513 1516 1517 1519 1522 1524 1526 1528 1530 1532 1534 1538 1540 1543 1544 1545 1546 1548 1548 1549 1549 1549 1550 1551 1550 1549 1548
1480 1483 1485 1487 1488 1490 1492 1494 1496 1499 1501 1503 1504 1505 1507 1508 1510 1512 1513 1515 1517 1520 1522 1524 1527 1529 1531 1534 1537 1540 1541 1542 1544 1545 1547 1548 1548 1549 1549 1550 1550 1550 1549
1478 1481 1483 1485 1487 1488 1490 1492 1495 1497 1499 1501 1502 1502 1503 1504 1505 1507 1509 1511 1512 1514 1517 1520 1522 1524 1527 1530 1533 1535 1538 1540 1541 1542 1543 1546 1547 1548 1548 1549 1549 1549 1548
1477 1480 1482 1484 1486 1487 1489 1491 1492 1495 1496 1498 1499 1500 1501 1501 1502 1503 1505 1506 1507 1509 1512 1514 1517 1520 1523 1525 1528 1531 1534 1536 1538 1540 1540 1542 1544 1546 1547 1547 1548 1548 1548